Starlink 35001

operational
NORAD ID: 65280 Int'l Des: 2025-184 Owner: SPXS Country: US Constellation: starlink
LEOCIRCULARRETROGRADESSO

Über Starlink 35001

Beschreibung wird geladen...

Live-Position

3D-Globus wird geladen...

Nächste Überflüge

Höhenverlauf

Altitude vs Time

uPlot chart will show altitude changes over time

Zweizeiliger Elementsatz

1 65280U 25184H 26063.11820574 .00004233 00000-0 29739-3 0 9991
2 65280 97.6013 117.1863 0001169 110.8885 249.2467 15.05653885 30467
Epoch: 4. März 2026 • Age: 15 hours

Aktueller Status

Höhe 553.5 km
Geschwindigkeit 7.58 km/s
Subsatellitenpunkt -6.77°S, 88.03°W
Startdatum 22. Aug. 2025
Alter 0.5 years
Typ internet

Technische Details

Klassifizierung Payload
Masse 575.00 kg
Trockenmasse 530.00 kg
Gesamtmasse 575.00 kg
Länge 0.30 m
Durchmesser 4.10 m
Spannweite 29.00 m
Form Box + pan
Hersteller SPXS
Bus-Typ Starlink V2MO
Phasenstatus In Orbit
Besitzer/Staat SPXS/US

Große Konstellationen

Loading constellations...